GPS BIIA-23 (PRN 18)

Last updated on Oct. 17, 2019, 4:15 a.m. UTC

1 22877U 93068A   19289.49187111 -.00000025  00000-0  00000+0 0  9990
2 22877  54.7750  63.6072 0154599  82.3690  95.4144  2.00564048190300
UTC
Height (km)
Latitude
Longitude
Inclination
Orbital Period
UTC large
Height (km)
Speed (km/s)
/
Latitude / Longitude
Inclination (degrees)
Orbital Period (minutes)
Azimuth
Elevation
Range (km)
Doppler Factor
iOS Compass Heading
iOS Angle